507  
ASUS42 KFFC 010010  
RWRGA  
WEATHER ROUNDUP FOR GEORGIA  
NATIONAL WEATHER SERVICE PEACHTREE CITY GA  
800 PM EDT SAT OCT 31 2020  
 
NOTE: "FAIR" INDICATES FEW OR NO CLOUDS BELOW 12,000 FEET WITH NO  
SIGNIFICANT WEATHER AND/OR S TO VISIBILITY
.  
 
* = USE WITH CAUTION. THE STATIONS MARKED WITH AN ASTERISK MAY NOT  
REPORT WEATHER SUCH AS PRECIPITATION, FOG, OR THUNDER AND ARE NOT  
QUALITY CONTROLLED BY NWS.  
 
THE REMARK "TC" DENOTES TEMPERATURE READING IN DEGREES CELSIUS.  
 
GAZ001>058-010100-  
NORTH GEORGIA  
 
CITY SKY/WX TMP DP RH WIND PRES REMARKS
 
ATLANTA CLOUDY 61 47 59 E12 30.27R  
6HR MIN TEMP: 61; 6HR MAX TEMP: 66;  
 
ATHENS CLOUDY 59 47 64 E8 30.30S  
6HR MIN TEMP: 59; 6HR MAX TEMP: 66;  
 
CHAMBLEE CLOUDY 59 47 64 VRB5 30.28R  
6HR MIN TEMP: 59; 6HR MAX TEMP: 64;  
 
PEACHTREE CITY CLOUDY 61 50 67 E8 30.27S  
6HR MIN TEMP: 61; 6HR MAX TEMP: 67;  
 
ROME CLEAR 56 47 71 CALM 30.23S  
6HR MIN TEMP: 56; 6HR MAX TEMP: 67;  
 
WEST ATLANTA MOCLDY 61 47 59 E7 30.26R  
6HR MIN TEMP: 61; 6HR MAX TEMP: 66;  
 
GAINESVILLE CLOUDY 55 43 63 E13 30.31F  
6HR MIN TEMP: 55; 6HR MAX TEMP: 61;  
 
CARTERSVILLE CLEAR 58 47 66 CALM 30.26S  
6HR MIN TEMP: 56; 6HR MAX TEMP: 67;  
 
 
CITY SKY/WX TMP DP RH WIND PRES REMARKS
 
DALTON* CLEAR 59 43 55 SE5 30.26S  
LAWRENCEVILLE* CLOUDY 57 48 72 E9 30.29R  
MARIETTA MOCLDY 59 46 63 E10 30.26S  
KENNESAW* MOCLDY 59 47 64 E12 30.27S  
CANTON* MOCLDY 55 43 62 E6 30.29R  
BLAIRSVILLE* PTCLDY 52 43 71 E7 30.29R  

 
 
GAZ059>098-102>109-010100-  
CENTRAL GEORGIA  
 
CITY SKY/WX TMP DP RH WIND PRES REMARKS
 
AUGUSTA-BUSH CLOUDY 62 50 64 NE8 30.29R  
6HR MIN TEMP: 62; 6HR MAX TEMP: 68; 6HR PCP: TRACE;  
 
AUGUSTA-DANIEL CLOUDY 62 49 62 NE7 30.31R  
6HR MIN TEMP: 62; 6HR MAX TEMP: 67;  
 
COLUMBUS PTCLDY 63 50 62 E9 30.23R  
6HR MIN TEMP: 63; 6HR MAX TEMP: 71;  
 
MACON CLOUDY 61 51 70 NE6 30.27R  
6HR MIN TEMP: 61; 6HR MAX TEMP: 68;  
 
ROBINS AFB CLOUDY 62 53 72 NE3 30.26R  
 
 
CITY SKY/WX TMP DP RH WIND PRES REMARKS
 
LAGRANGE* CLEAR 59 49 70 CALM 30.24S  
SYLVANIA* CLOUDY 64 54 70 E6 30.28R  

 
 
GAZ099>101-110>166-010100-  
SOUTH GEORGIA  
 
CITY SKY/WX TMP DP RH WIND PRES REMARKS
 
SAVANNAH CLOUDY 68 61 78 NE8G18 30.24R  
6HR MIN TEMP: 68; 6HR MAX TEMP: 75; 6HR PCP: TRACE;  
 
VALDOSTA CLOUDY 68 60 75 NE10 30.19R  
6HR MIN TEMP: 68; 6HR MAX TEMP: 76;  
 
ALMA CLOUDY 63 60 90 VRB5 30.22R FOG  
6HR MIN TEMP: 63; 6HR MAX TEMP: 72; 6HR PCP: TRACE;  
 
ST SIMONS LGT RAIN 74 70 87 E15 30.18R  
6HR MIN TEMP: 71; 6HR MAX TEMP: 75; 6HR PCP: 0.05;  
 
FT STEWART CLOUDY 68 63 83 NE9 30.21R  
ALBANY CLOUDY 68 55 63 NE12 30.22S  
HUNTER AFB CLOUDY 67 62 83 NE10 30.21R  
MOODY AFB CLOUDY 66 60 81 NE8 30.19R  
BRUNSWICK CLOUDY 69 68 95 N7 30.19R  
 
 
CITY SKY/WX TMP DP RH WIND PRES REMARKS
 
BAINBRIDGE* MOCLDY 68 60 74 NE10 30.18S  
MOULTRIE* CLOUDY 68 59 73 NE6 30.21R  
VIDALIA* CLOUDY 63 54 72 NE12G21 30.25R  
WAYCROSS* DRIZZLE 64 60 85 NE8 30.21R  
DOUGLAS* CLOUDY 63 62 96 NE8 30.24R  

 
 
 
CLICK HERE TO GO TO PREVIOUS BULLETINS.

The Nexlab GA Page Main Text Page